Location: Ch�tillon
(48.8024°N, 2.2935°E)
Time: 18:52:43
(UTC+00:00)

RS-15 - Pass Details

Date: 06 July 2022
Orbit: 1881 x 2163 km, 64.8° (Epoch: 11 August)

Event Time Altitude Azimuth Distance (km) Brightness Sun altitude
Rises 22:18:12 0° 320° (NW) 5,698 12.0 -15.3°
Reaches altitude 10° 22:21:40 10° 320° (NW) 4,693 11.2 -15.6°
Maximum altitude 22:34:04 82° 236° (SW) 2,158 8.2 -16.3°
Enters shadow 22:43:20 20° 152° (SSE) 3,777 8.9 -16.8°
